FW2347 Weather Reports


Display with metric or nautical units.
time (UTC)temp
F
wind
direction
speed
MPH
gust
MPH
rain 1hr
in
rain 24hr
in
rain mn
in
humidity
%
barometer
mb
20260509093053 65 209 0.0 0.0 0.00 0.00 0.00 70 1012.0
20260509091601 64 34 0.0 0.0 0.00 0.00 0.00 71 1011.9
20260509090001 62 202 0.0 0.0 0.00 0.00 0.00 71 1012.1
20260509084530 61 214 0.0 0.0 0.00 0.00 0.00 70 1012.1
20260509083048 61 263 0.0 0.0 0.00 0.00 0.00 68 1012.0
20260509081539 60 144 0.0 0.0 0.00 0.00 0.00 62 1012.2
20260509080112 59 202 0.0 0.0 0.00 0.00 0.00 54 1012.2
20260509074513 58 68 0.0 0.0 0.00 0.00 0.00 32 1012.4
20260509073019 56 63 0.0 0.0 0.00 0.00 0.00 14 1012.6
20260509071524 55 304 0.0 0.0 0.00 0.00 0.00 5 1012.6
20260509070024 53 305 0.0 0.0 0.00 0.00 0.00 3 1012.7
20260509064539 53 245 0.0 0.0 0.00 0.00 0.00 2 1012.9
20260509063048 52 209 0.0 0.0 0.00 0.00 0.00 2 1012.8
20260509061602 51 209 0.0 0.0 0.00 0.00 0.00 3 1013.1
20260509060101 49 209 0.0 0.0 0.00 0.00 0.00 4 1013.1
20260509054508 47 209 0.0 0.0 0.00 0.00 0.00 6 1013.2
20260509053040 47 209 0.0 0.0 0.00 0.00 0.00 7 1013.4
20260509051553 46 209 0.0 0.0 0.00 0.00 0.00 7 1013.3
20260509050108 46 211 0.0 0.0 0.00 0.00 0.00 8 1013.1
20260509044517 46 211 0.0 0.0 0.00 0.00 0.00 9 1013.2
20260509043046 45 211 0.0 0.0 0.00 0.00 0.00 9 1013.1
20260509041550 45 211 0.0 0.0 0.00 0.00 0.00 9 1013.1
20260509040002 46 211 0.0 0.0 0.00 0.00 0.00 10 1013.1
20260509034534 46 211 0.0 0.0 0.00 0.00 0.00 10 1013.2
20260509033103 46 211 0.0 0.0 0.00 0.00 0.00 10 1013.3
20260509031603 47 211 0.0 0.0 0.00 0.00 0.00 10 1013.3
20260509030003 47 212 0.0 0.0 0.00 0.00 0.00 10 1013.2
20260509024510 46 212 0.0 0.0 0.00 0.00 0.00 11 1013.5
20260509023024 46 212 0.0 0.0 0.00 0.00 0.00 12 1013.7
20260509021527 46 211 0.0 0.0 0.00 0.00 0.00 13 1013.9
20260509020026 47 211 0.0 0.0 0.00 0.00 0.00 12 1013.9
20260509014523 46 212 0.0 0.0 0.00 0.00 0.00 14 1014.0
20260509013022 48 212 0.0 0.0 0.00 0.00 0.00 13 1014.2
20260509011529 47 211 0.0 0.0 0.00 0.00 0.00 14 1014.2
20260509010036 47 212 0.0 0.0 0.00 0.00 0.00 15 1014.4
20260509004556 47 211 0.0 0.0 0.00 0.00 0.00 16 1014.6
20260509003057 46 222 0.0 0.0 0.00 0.00 0.00 18 1014.6
20260509001504 46 222 0.0 0.0 0.00 0.00 0.00 20 1014.8
20260509000036 46 222 0.0 0.0 0.00 0.00 0.00 20 1014.6
20260508234524 46 222 0.0 0.0 0.00 0.00 0.00 23 1014.6
20260508233036 46 222 0.0 0.0 0.00 0.00 0.00 24 1014.4
20260508231557 47 222 0.0 0.0 0.00 0.00 0.00 25 1014.4
20260508230059 47 222 0.0 0.0 0.00 0.00 0.00 27 1014.5
20260508224529 48 222 0.0 0.0 0.00 0.00 0.00 28 1014.5
20260508223023 48 222 0.0 0.0 0.00 0.00 0.00 31 1014.5
20260508221531 48 222 0.0 0.0 0.00 0.00 0.00 35 1014.7
20260508220033 48 222 0.0 0.0 0.00 0.00 0.00 39 1014.7
20260508214553 49 222 0.0 0.0 0.00 0.00 0.00 41 1014.7
20260508213058 50 222 0.0 0.0 0.00 0.00 0.00 45 1014.5
20260508211510 50 222 0.0 0.0 0.00 0.00 0.00 50 1014.7
20260508210019 50 222 0.0 0.0 0.00 0.00 0.00 53 1014.6
20260508204512 50 222 0.0 0.0 0.00 0.00 0.00 57 1014.3
20260508203012 51 222 0.0 0.0 0.00 0.00 0.00 60 1014.2
20260508201518 51 223 0.0 0.0 0.00 0.00 0.00 65 1014.0
20260508200043 52 223 0.0 0.0 0.00 0.00 0.00 69 1013.9
20260508194534 53 223 0.0 0.0 0.00 0.00 0.00 71 1013.6
20260508193107 55 223 0.0 0.0 0.00 0.00 0.00 73 1013.4
20260508191607 57 223 0.0 0.0 0.00 0.00 0.00 73 1013.2
20260508190107 58 223 0.0 0.0 0.00 0.00 0.00 72 1012.9
20260508184602 59 242 0.0 0.0 0.00 0.00 0.00 72 1012.8
20260508183103 60 259 0.0 0.0 0.00 0.00 0.00 71 1012.8
20260508181614 60 265 0.0 0.0 0.00 0.00 0.00 71 1012.5
20260508180002 61 261 0.0 0.0 0.00 0.00 0.00 70 1012.4
20260508174600 61 232 0.0 0.0 0.00 0.00 0.00 69 1012.5
20260508173018 62 196 0.0 0.0 0.00 0.00 0.00 68 1012.1
20260508171537 63 257 0.0 0.0 0.00 0.00 0.00 67 1012.0
20260508170039 63 254 0.0 0.0 0.00 0.00 0.00 65 1011.8
20260508164606 63 270 0.0 0.0 0.00 0.00 0.00 64 1011.7
20260508163017 64 234 0.0 0.0 0.00 0.00 0.00 60 1011.6
20260508161540 65 225 0.0 0.0 0.00 0.00 0.00 61 1011.7
20260508160036 65 290 0.0 0.0 0.00 0.00 0.00 61 1011.9
20260508154543 65 272 0.0 0.0 0.00 0.00 0.00 60 1011.8
20260508153058 65 231 0.0 0.0 0.00 0.00 0.00 59 1011.8
20260508151549 66 234 0.0 0.0 0.00 0.00 0.00 59 1011.9
20260508150126 66 300 0.0 0.0 0.00 0.00 0.00 59 1011.8
20260508144521 65 234 0.0 0.0 0.00 0.00 0.00 60 1011.9
20260508143027 64 360 0.0 0.0 0.00 0.00 0.00 61 1012.1
20260508141533 63 281 0.0 0.0 0.00 0.00 0.00 63 1012.7
20260508140056 62 355 0.0 0.0 0.00 0.00 0.00 64 1012.9
20260508134609 62 311 0.0 0.0 0.00 0.00 0.00 63 1013.1
20260508133109 63 269 0.0 0.0 0.00 0.00 0.00 62 1013.0
20260508131520 64 263 0.0 0.0 0.00 0.00 0.00 59 1012.6
20260508130036 66 360 0.0 0.0 0.00 0.00 0.00 55 1012.5
20260508124548 66 328 0.0 0.0 0.00 0.00 0.00 56 1012.6
20260508123107 65 277 0.0 0.0 0.00 0.00 0.00 58 1012.5
20260508121519 64 192 0.0 0.0 0.00 0.00 0.00 55 1012.5
20260508120032 64 261 0.0 0.0 0.00 0.00 0.00 58 1012.6
20260508114527 64 275 0.0 0.0 0.00 0.00 0.00 59 1012.8
20260508113044 64 285 0.0 0.0 0.00 0.00 0.00 59 1012.6
20260508111534 64 228 0.0 0.0 0.00 0.00 0.00 60 1012.5
20260508110104 64 315 0.0 0.0 0.00 0.00 0.00 58 1012.8
20260508104607 63 276 0.0 0.0 0.00 0.00 0.00 60 1013.0
20260508103004 64 226 0.0 0.0 0.00 0.00 0.00 59 1013.1
20260508101536 64 217 0.0 0.0 0.00 0.00 0.00 58 1013.1
20260508100042 65 275 0.0 0.0 0.00 0.00 0.00 59 1013.3
20260508094601 63 267 0.0 0.0 0.00 0.00 0.00 61 1013.4